GFLYD EGMC-EGLC

Flight info

Callsign GFLYD
Flight time 0h 19m
Altitude 8000
Route ATPEV DCT LCS01 DCT LCS02 DCT TODBI DCT ODLEG
Aircraft C750/M-SBDE3FGHRWXY/S

Departure

Time 2026-05-04 18:25
Airport London Southend Airport (EGMC)

Arrival

Time 2026-05-04 18:45
Airport London City Airport (EGLC)
Time Latitude Longitude Altitude Speed Heading
2026-05-04 18:04 51.56825 0.69976 50 ft 0 kts 191°
2026-05-04 18:20 51.56823 0.69979 47 ft 0 kts 150°
2026-05-04 18:20 51.56832 0.69998 45 ft 10 kts 358°
2026-05-04 18:20 51.56892 0.69841 50 ft 19 kts 281°
2026-05-04 18:20 51.56912 0.69636 47 ft 18 kts 278°
2026-05-04 18:21 51.56910 0.69459 48 ft 15 kts 260°
2026-05-04 18:21 51.56894 0.69300 49 ft 14 kts 258°
2026-05-04 18:21 51.56848 0.69182 51 ft 11 kts 232°
2026-05-04 18:21 51.56850 0.69091 50 ft 7 kts 316°
2026-05-04 18:22 51.56879 0.69053 54 ft 7 kts 323°
2026-05-04 18:22 51.56870 0.68947 54 ft 14 kts 234°
2026-05-04 18:22 51.56814 0.68825 52 ft 14 kts 233°
2026-05-04 18:22 51.56769 0.68724 52 ft 15 kts 236°
2026-05-04 18:23 51.56721 0.68617 53 ft 21 kts 233°
2026-05-04 18:23 51.56634 0.68423 52 ft 21 kts 233°
2026-05-04 18:24 51.56554 0.68255 51 ft 11 kts 216°
2026-05-04 18:24 51.56513 0.68211 51 ft 1 kts 284°
2026-05-04 18:24 51.56529 0.68212 51 ft 6 kts 30°
2026-05-04 18:24 51.56560 0.68262 51 ft 0 kts 50°
2026-05-04 18:25 51.56585 0.68314 50 ft 30 kts 53°
2026-05-04 18:25 51.56962 0.69145 81 ft 136 kts 54°
2026-05-04 18:25 51.57534 0.70399 605 ft 142 kts 55°
2026-05-04 18:25 51.58115 0.71734 1158 ft 150 kts 57°
2026-05-04 18:26 51.58709 0.73174 1529 ft 163 kts 54°
2026-05-04 18:26 51.59399 0.74738 1525 ft 182 kts 54°
2026-05-04 18:26 51.60188 0.76497 1498 ft 205 kts 54°
2026-05-04 18:26 51.61098 0.78531 1915 ft 239 kts 54°
2026-05-04 18:27 51.62069 0.80721 3092 ft 238 kts 53°
2026-05-04 18:27 51.63038 0.82973 3930 ft 255 kts 54°
2026-05-04 18:27 51.64051 0.85373 4008 ft 259 kts 54°
2026-05-04 18:27 51.65060 0.87796 4004 ft 261 kts 54°
2026-05-04 18:28 51.65742 0.90496 3924 ft 265 kts 82°
2026-05-04 18:28 51.65347 0.93371 3897 ft 271 kts 118°
2026-05-04 18:28 51.63983 0.95362 3900 ft 274 kts 154°
2026-05-04 18:28 51.62136 0.95755 3956 ft 270 kts 187°
2026-05-04 18:29 51.60265 0.95084 4029 ft 272 kts 196°
2026-05-04 18:29 51.58447 0.94304 4017 ft 269 kts 196°
2026-05-04 18:29 51.56662 0.93520 4012 ft 271 kts 196°
2026-05-04 18:29 51.54842 0.92717 4008 ft 273 kts 196°
2026-05-04 18:30 51.51155 0.91072 4001 ft 275 kts 196°
2026-05-04 18:30 51.49499 0.89654 3923 ft 270 kts 225°
2026-05-04 18:30 51.48654 0.87053 3915 ft 264 kts 261°
2026-05-04 18:31 51.48772 0.84134 4011 ft 262 kts 281°
2026-05-04 18:31 51.49066 0.81235 4020 ft 263 kts 278°
2026-05-04 18:31 51.49112 0.78308 4012 ft 263 kts 270°
2026-05-04 18:31 51.49013 0.75365 4010 ft 264 kts 269°
2026-05-04 18:32 51.48962 0.72421 4009 ft 264 kts 272°
2026-05-04 18:32 51.48958 0.69481 4008 ft 264 kts 272°
2026-05-04 18:32 51.48943 0.66541 4004 ft 264 kts 271°
2026-05-04 18:32 51.48911 0.63598 4004 ft 264 kts 271°
2026-05-04 18:33 51.48881 0.60646 4003 ft 263 kts 271°
2026-05-04 18:33 51.48854 0.57695 4000 ft 264 kts 271°
2026-05-04 18:33 51.48874 0.54757 3989 ft 262 kts 276°
2026-05-04 18:33 51.49002 0.51832 3991 ft 263 kts 275°
2026-05-04 18:34 51.49077 0.48903 3993 ft 262 kts 274°
2026-05-04 18:34 51.48800 0.46005 3935 ft 269 kts 249°
2026-05-04 18:34 51.47882 0.43381 4008 ft 273 kts 240°
2026-05-04 18:34 51.46907 0.40785 4006 ft 270 kts 240°
2026-05-04 18:35 51.45967 0.38224 4009 ft 271 kts 240°
2026-05-04 18:35 51.45009 0.35595 4007 ft 265 kts 240°
2026-05-04 18:35 51.44118 0.33177 3992 ft 239 kts 240°
2026-05-04 18:35 51.43331 0.30975 3980 ft 223 kts 244°
2026-05-04 18:36 51.43079 0.28568 3918 ft 220 kts 274°
2026-05-04 18:36 51.43184 0.26136 4003 ft 222 kts 276°
2026-05-04 18:36 51.43266 0.23650 4003 ft 222 kts 275°
2026-05-04 18:36 51.43340 0.21210 3718 ft 218 kts 275°
2026-05-04 18:37 51.43419 0.18813 3436 ft 212 kts 275°
2026-05-04 18:37 51.43495 0.16510 3185 ft 202 kts 276°
2026-05-04 18:37 51.43566 0.14312 2977 ft 193 kts 276°
2026-05-04 18:37 51.43636 0.12198 2985 ft 188 kts 275°
2026-05-04 18:38 51.43706 0.10080 2994 ft 195 kts 275°
2026-05-04 18:38 51.43776 0.07915 2999 ft 195 kts 275°
2026-05-04 18:38 51.43844 0.05735 3007 ft 196 kts 275°
2026-05-04 18:38 51.43915 0.03544 3014 ft 198 kts 275°
2026-05-04 18:39 51.43986 0.01304 2814 ft 204 kts 275°
2026-05-04 18:39 51.44056 -0.00955 2562 ft 203 kts 275°
2026-05-04 18:39 51.44124 -0.03190 2299 ft 199 kts 275°
2026-05-04 18:39 51.44193 -0.05411 2033 ft 199 kts 275°
2026-05-04 18:40 51.44263 -0.07537 1990 ft 189 kts 276°
2026-05-04 18:40 51.44724 -0.09480 1963 ft 185 kts 309°
2026-05-04 18:40 51.45699 -0.10770 1974 ft 178 kts 338°
2026-05-04 18:40 51.46810 -0.11261 2004 ft 157 kts 351°
2026-05-04 18:41 51.47803 -0.11631 1965 ft 130 kts 352°
2026-05-04 18:41 51.48603 -0.11564 1887 ft 106 kts 22°
2026-05-04 18:41 51.49112 -0.10686 1631 ft 109 kts 55°
2026-05-04 18:41 51.49553 -0.09788 1695 ft 98 kts 50°
2026-05-04 18:42 51.49976 -0.08901 1818 ft 102 kts 51°
2026-05-04 18:42 51.50417 -0.07997 1937 ft 104 kts 51°
2026-05-04 18:42 51.50752 -0.06950 1972 ft 112 kts 74°
2026-05-04 18:42 51.50802 -0.05695 2009 ft 114 kts 85°
2026-05-04 18:43 51.50799 -0.04426 2009 ft 113 kts 87°
2026-05-04 18:43 51.50778 -0.03159 1951 ft 116 kts 88°
2026-05-04 18:43 51.50740 -0.01788 1594 ft 127 kts 88°
2026-05-04 18:43 51.50704 -0.00389 1131 ft 125 kts 88°
2026-05-04 18:44 51.50674 0.00973 759 ft 119 kts 89°
2026-05-04 18:44 51.50657 0.01412 677 ft 115 kts 90°
2026-05-04 18:44 51.50601 0.03063 321 ft 114 kts 88°
2026-05-04 18:44 51.50562 0.04313 73 ft 110 kts 89°
2026-05-04 18:45 51.50529 0.05378 21 ft 66 kts 98°
2026-05-04 18:45 51.50516 0.05853 21 ft 10 kts 97°
2026-05-04 18:45 51.50512 0.05927 21 ft 10 kts 92°
2026-05-04 18:45 51.50504 0.06026 23 ft 7 kts 121°
2026-05-04 18:46 51.50472 0.06037 21 ft 3 kts 200°
2026-05-04 18:46 51.50447 0.06004 21 ft 7 kts 225°
2026-05-04 18:46 51.50426 0.05940 21 ft 6 kts 263°
2026-05-04 18:46 51.50427 0.05873 21 ft 6 kts 272°
2026-05-04 18:47 51.50429 0.05804 21 ft 6 kts 272°
2026-05-04 18:47 51.50431 0.05730 21 ft 8 kts 273°
2026-05-04 18:47 51.50438 0.05516 21 ft 27 kts 273°
2026-05-04 18:47 51.50448 0.05220 21 ft 26 kts 272°
2026-05-04 18:48 51.50465 0.04936 21 ft 25 kts 271°
2026-05-04 18:48 51.50474 0.04656 21 ft 25 kts 272°
2026-05-04 18:48 51.50484 0.04464 21 ft 9 kts 283°
2026-05-04 18:48 51.50496 0.04367 21 ft 9 kts 284°
2026-05-04 18:49 51.50502 0.04276 21 ft 8 kts 273°
2026-05-04 18:49 51.50507 0.04223 22 ft 0 kts 290°
2026-05-04 18:49 51.50517 0.04153 21 ft 11 kts 271°
2026-05-04 18:49 51.50518 0.04089 21 ft 3 kts 260°
2026-05-04 18:50 51.50508 0.04070 22 ft 2 kts 214°
2026-05-04 18:50 51.50499 0.04058 21 ft 0 kts 237°